GW3250 Weather Reports


time (UTC)temp
F
wind
direction
speed
knots
gust
knots
rain 1hr
in
rain 24hr
in
rain mn
in
humidity
%
barometer
mb
20260906165314 73 138 1.7 1.7 0.00 0.00 0.00 71 1014.0
20260906164813 71 109 2.6 3.5 0.00 0.00 0.00 71 1014.1
20260906164308 68 145 0.0 0.0 0.00 0.00 0.00 78 1014.2
20260906163804 69 114 0.9 1.7 0.00 0.00 0.00 75 1014.3
20260906163301 70 7 2.6 2.6 0.00 0.00 0.00 73 1014.1
20260906162757 72 100 2.6 2.6 0.00 0.00 0.00 70 1014.2
20260906162251 71 189 0.9 0.9 0.00 0.00 0.00 72 1014.1
20260906161746 71 126 0.0 0.9 0.00 0.00 0.00 79 1014.1
20260906161245 69 188 0.0 0.0 0.00 0.00 0.00 80 1014.2
20260906160744 67 196 1.7 1.7 0.00 0.00 0.00 85 1014.4
20260906160244 67 196 0.9 0.9 0.00 0.00 0.00 86 1014.6
20260906155741 67 196 0.9 0.9 0.00 0.00 0.00 86 1014.7
20260906155236 68 166 0.0 0.0 0.00 0.00 0.00 84 1014.7
20260906154732 69 240 1.7 2.6 0.00 0.00 0.00 83 1014.4
20260906154227 67 108 1.7 2.6 0.00 0.00 0.00 85 1014.5
20260906153725 67 184 0.0 0.0 0.00 0.00 0.00 87 1014.5
20260906153219 68 177 0.9 0.9 0.00 0.00 0.00 85 1014.5
20260906152714 69 162 0.9 0.9 0.00 0.00 0.00 84 1014.6
20260906152210 69 181 0.9 1.7 0.00 0.00 0.00 79 1014.6
20260906151704 69 178 0.0 0.9 0.00 0.00 0.00 83 1014.5
20260906151200 67 178 0.9 0.9 0.00 0.00 0.00 87 1014.3
20260906150655 65 180 0.9 1.7 0.00 0.00 0.00 90 1014.5
20260906150150 65 164 0.0 0.9 0.00 0.00 0.00 88 1014.5
20260906145648 67 166 0.9 0.9 0.00 0.00 0.00 88 1014.4
20260906145143 66 168 0.0 0.9 0.00 0.00 0.00 86 1014.6
20260906144637 66 188 0.0 0.0 0.00 0.00 0.00 88 1014.6
20260906144138 65 188 0.0 0.9 0.00 0.00 0.00 90 1014.4
20260906143637 66 175 0.9 0.9 0.00 0.00 0.00 90 1014.5
20260906143135 67 172 0.9 0.9 0.00 0.00 0.00 90 1014.5
20260906142634 67 183 1.7 1.7 0.00 0.00 0.00 85 1014.5
20260906142129 65 177 0.0 0.0 0.00 0.00 0.00 88 1014.4
20260906141628 65 206 0.9 0.9 0.00 0.00 0.00 91 1014.3
20260906141124 66 154 0.0 0.0 0.00 0.00 0.00 89 1014.1
20260906140622 66 225 0.9 1.7 0.00 0.00 0.00 88 1014.3
20260906140118 66 183 0.9 0.9 0.00 0.00 0.00 92 1014.3
20260906135614 67 263 1.7 2.6 0.00 0.00 0.00 87 1014.3
20260906135110 65 183 0.9 0.9 0.00 0.00 0.00 88 1014.3
20260906134606 65 183 0.0 0.9 0.00 0.00 0.00 93 1014.5
20260906134101 64 183 0.0 0.0 0.00 0.00 0.00 94 1014.2
20260906133556 64 183 0.0 0.0 0.00 0.00 0.00 95 1014.2
20260906133052 65 179 0.9 0.9 0.00 0.00 0.00 92 1014.1
20260906132546 66 193 0.9 0.9 0.00 0.00 0.00 90 1013.8
20260906132042 65 112 0.0 0.0 0.00 0.00 0.00 92 1013.7
20260906131537 62 205 1.7 1.7 0.00 0.00 0.00 98 1013.9
20260906131033 62 189 0.9 0.9 0.00 0.00 0.00 99 1014.3
20260906130532 61 188 0.9 0.9 0.00 0.00 0.00 99 1014.0
20260906130027 60 177 1.7 2.6 0.00 0.00 0.00 99 1014.2
20260906125524 60 186 0.9 0.9 0.00 0.00 0.00 99 1014.2
20260906125019 60 201 0.9 0.9 0.00 0.00 0.00 99 1014.0
20260906124514 59 201 1.7 1.7 0.00 0.00 0.00 99 1014.1
20260906124009 59 201 0.9 1.7 0.00 0.00 0.00 99 1013.9
20260906123508 59 200 1.7 1.7 0.00 0.00 0.00 99 1013.9
20260906123004 59 200 0.9 0.9 0.00 0.00 0.00 99 1013.8
20260906122457 59 199 0.9 0.9 0.00 0.00 0.00 99 1013.6
20260906121954 59 199 1.7 1.7 0.00 0.00 0.00 99 1014.0
20260906121450 59 199 0.9 0.9 0.00 0.00 0.00 99 1013.9
20260906120946 58 199 0.9 1.7 0.00 0.00 0.00 99 1013.7
20260906120441 58 199 0.9 0.9 0.00 0.00 0.00 99 1013.9
20260906115937 58 191 0.9 1.7 0.00 0.00 0.00 99 1013.8
20260906115432 59 188 0.9 0.9 0.00 0.00 0.00 99 1013.7
20260906114926 58 193 0.9 0.9 0.00 0.00 0.00 99 1013.9
20260906114421 58 196 0.0 0.0 0.00 0.00 0.00 99 1013.7
20260906113917 58 194 0.9 0.9 0.00 0.00 0.00 99 1013.6
20260906113415 58 194 1.7 1.7 0.00 0.00 0.00 99 1013.7
20260906112911 58 194 0.9 0.9 0.00 0.00 0.00 99 1013.7
20260906112407 58 193 0.0 0.0 0.00 0.00 0.00 99 1013.5
20260906111902 58 193 0.0 0.0 0.00 0.00 0.00 99 1013.6
20260906111402 58 193 0.9 0.9 0.00 0.00 0.00 99 1013.3
20260906110856 58 193 0.9 0.9 0.00 0.00 0.00 99 1013.4
20260906110352 57 193 0.9 0.9 0.00 0.00 0.00 99 1013.4
20260906105851 57 193 0.0 0.9 0.00 0.00 0.00 99 1013.5
20260906105347 57 193 0.0 0.9 0.00 0.00 0.00 99 1013.5
20260906104843 57 193 0.0 0.0 0.00 0.00 0.00 99 1013.0
20260906104341 57 193 0.0 0.0 0.00 0.00 0.00 99 1013.0
20260906103840 57 193 0.9 1.7 0.00 0.00 0.00 99 1013.0
20260906103338 57 192 0.0 0.0 0.00 0.00 0.00 99 1013.0
20260906102835 57 192 0.0 0.0 0.00 0.00 0.00 99 1013.0
20260906102333 57 193 0.9 0.9 0.00 0.00 0.00 99 1012.5
20260906101829 57 192 0.9 1.7 0.00 0.00 0.00 99 1012.7
20260906101324 57 193 0.9 0.9 0.00 0.00 0.00 99 1012.4
20260906100819 56 192 0.9 0.9 0.00 0.00 0.00 99 1012.5
20260906100318 57 192 1.7 1.7 0.00 0.00 0.00 99 1012.3
20260906095813 57 192 1.7 1.7 0.00 0.00 0.00 99 1012.1
20260906095309 57 192 0.9 0.9 0.00 0.00 0.00 99 1012.3
20260906094808 57 192 0.0 0.0 0.00 0.00 0.00 99 1012.2
20260906094303 57 192 0.0 0.9 0.00 0.00 0.00 99 1012.5
20260906093759 57 192 0.9 0.9 0.00 0.00 0.00 99 1012.3
20260906093255 57 192 0.0 0.0 0.00 0.00 0.00 99 1012.3
20260906092749 57 192 0.0 0.0 0.00 0.00 0.00 99 1012.2
20260906092244 57 192 0.9 0.9 0.00 0.00 0.00 99 1012.0
20260906091740 57 192 0.9 0.9 0.00 0.00 0.00 99 1011.8
20260906091236 57 192 0.9 0.9 0.00 0.00 0.00 99 1011.9
20260906090732 57 192 0.0 0.9 0.00 0.00 0.00 99 1011.9
20260906090231 57 192 0.0 0.0 0.00 0.00 0.00 99 1012.0
20260906085731 57 192 0.0 0.0 0.00 0.00 0.00 99 1011.9
20260906085230 57 192 0.0 0.0 0.00 0.00 0.00 99 1012.0
20260906084724 57 192 0.9 0.9 0.00 0.00 0.00 99 1012.0
20260906084219 57 192 0.0 0.9 0.00 0.00 0.00 99 1012.0
20260906083713 57 192 0.0 0.9 0.00 0.00 0.00 99 1012.0
20260906083209 57 192 0.9 0.9 0.00 0.00 0.00 99 1011.7
20260906082704 57 192 0.9 0.9 0.00 0.00 0.00 99 1011.7
20260906082154 57 192 0.0 0.0 0.00 0.00 0.00 99 1011.7
20260906081649 57 192 0.0 0.0 0.00 0.00 0.00 99 1011.5
20260906081144 57 192 0.9 0.9 0.00 0.00 0.00 99 1011.6
20260906080641 57 192 0.0 0.9 0.00 0.00 0.00 99 1011.5
20260906080136 57 192 0.0 0.0 0.00 0.00 0.00 99 1011.7
20260906075630 57 192 0.9 0.9 0.00 0.00 0.00 99 1011.5
20260906075125 57 192 0.0 0.0 0.00 0.00 0.00 99 1011.7
20260906074620 57 192 0.0 0.0 0.00 0.00 0.00 99 1011.4
20260906074119 57 192 0.0 0.0 0.00 0.00 0.00 99 1011.5
20260906073614 57 192 0.0 0.0 0.00 0.00 0.00 99 1011.6
20260906073110 57 192 0.0 0.0 0.00 0.00 0.00 99 1011.4
20260906072605 57 192 0.0 0.0 0.00 0.00 0.00 99 1011.6
20260906072101 57 192 0.0 0.0 0.00 0.00 0.00 99 1011.6
20260906071557 58 192 0.0 0.0 0.00 0.00 0.00 99 1011.5
20260906071051 58 192 0.0 0.0 0.00 0.00 0.00 99 1011.6
20260906070548 58 192 0.0 0.0 0.00 0.00 0.00 99 1011.6
20260906070043 58 192 0.0 0.0 0.00 0.00 0.00 99 1011.6
20260906065542 58 192 0.0 0.0 0.00 0.00 0.00 99 1011.5
20260906065038 58 192 0.0 0.0 0.00 0.00 0.00 99 1011.5
20260906064534 58 192 0.0 0.0 0.00 0.00 0.00 99 1011.7
20260906064029 58 192 0.0 0.0 0.00 0.00 0.00 99 1011.8
20260906063524 58 192 0.9 0.9 0.00 0.00 0.00 99 1011.8
20260906063020 58 192 0.0 0.9 0.00 0.00 0.00 99 1011.6
20260906062515 58 192 0.0 0.0 0.00 0.00 0.00 99 1011.5
20260906062009 58 192 0.0 0.0 0.00 0.00 0.00 99 1011.7
20260906061506 58 192 0.0 0.0 0.00 0.00 0.00 99 1011.7
20260906061005 58 192 0.0 0.0 0.00 0.00 0.00 99 1011.9
20260906060502 59 192 0.0 0.0 0.00 0.00 0.00 99 1011.9
20260906055953 59 192 0.9 0.9 0.00 0.00 0.00 99 1011.8
20260906055448 59 192 0.0 0.0 0.00 0.00 0.00 99 1011.9
20260906054943 59 192 0.0 0.0 0.00 0.00 0.00 99 1011.7
20260906054438 59 192 0.0 0.0 0.00 0.00 0.00 99 1011.9
20260906053933 59 192 0.0 0.9 0.00 0.00 0.00 99 1011.9
20260906053430 59 192 0.0 0.0 0.00 0.00 0.00 99 1012.0
20260906052925 59 192 0.0 0.0 0.00 0.00 0.00 99 1012.1
20260906052421 60 192 0.9 0.9 0.00 0.00 0.00 99 1011.9
20260906051918 60 193 0.9 1.7 0.00 0.00 0.00 99 1011.9
20260906051413 60 192 0.0 0.0 0.00 0.00 0.00 99 1012.0
20260906050908 60 192 0.9 0.9 0.00 0.00 0.00 99 1011.9
20260906050403 60 79 0.9 1.7 0.00 0.00 0.00 99 1012.0
20260906045902 60 79 0.0 0.0 0.00 0.00 0.00 99 1012.0
20260906045401 60 79 0.0 0.0 0.00 0.00 0.00 99 1011.8
20260906044857 60 78 0.0 0.0 0.00 0.00 0.00 99 1011.9
20260906044351 60 78 0.0 0.0 0.00 0.00 0.00 99 1012.0
20260906043847 60 78 0.0 0.0 0.00 0.00 0.00 99 1011.9
20260906043343 60 79 0.0 0.0 0.00 0.00 0.00 99 1012.0
20260906042838 60 79 0.0 0.0 0.00 0.00 0.00 99 1012.0
20260906042336 60 79 0.0 0.0 0.00 0.00 0.00 99 1012.2
20260906041832 60 78 0.0 0.0 0.00 0.00 0.00 99 1012.2
20260906041329 60 79 0.0 0.0 0.00 0.00 0.00 99 1012.1
20260906040828 60 79 0.0 0.0 0.00 0.00 0.00 99 1011.7
20260906040323 60 79 0.9 0.9 0.00 0.00 0.00 99 1011.8
20260906035819 60 79 0.0 0.0 0.00 0.00 0.00 99 1011.7
20260906035314 60 79 0.0 0.0 0.00 0.00 0.00 99 1011.8
20260906034809 60 78 0.0 0.0 0.00 0.00 0.00 99 1011.7
20260906034309 60 79 0.0 0.0 0.00 0.00 0.00 99 1011.9
20260906033805 60 79 0.0 0.0 0.00 0.00 0.00 99 1011.8
20260906033304 60 78 0.9 0.9 0.00 0.00 0.00 99 1011.8
20260906032801 60 79 0.0 0.0 0.00 0.00 0.00 99 1011.8
20260906032256 60 78 0.0 0.0 0.00 0.00 0.00 99 1011.8
20260906031751 60 78 0.0 0.0 0.00 0.00 0.00 99 1011.9
20260906031247 60 78 0.9 0.9 0.00 0.00 0.00 99 1011.8
20260906030746 60 79 0.9 0.9 0.00 0.00 0.00 99 1011.9
20260906030242 60 78 0.0 0.0 0.00 0.00 0.00 99 1011.5
20260906025741 60 78 0.0 0.0 0.00 0.00 0.00 99 1011.6
20260906025235 60 78 0.0 0.0 0.00 0.00 0.00 99 1011.7
20260906024734 60 78 0.0 0.0 0.00 0.00 0.00 99 1011.6
20260906024234 60 78 0.0 0.0 0.00 0.00 0.00 99 1011.7
20260906023730 60 78 0.0 0.0 0.00 0.00 0.00 99 1011.8
20260906023225 60 78 0.0 0.0 0.00 0.00 0.00 99 1011.7
20260906022720 60 78 0.0 0.0 0.00 0.00 0.00 99 1011.5
20260906022215 60 78 0.0 0.0 0.00 0.00 0.00 99 1011.7
20260906021712 60 78 0.0 0.0 0.00 0.00 0.00 99 1011.7
20260906021210 60 78 0.0 0.0 0.00 0.00 0.00 99 1011.7
20260906020705 60 78 0.0 0.0 0.00 0.00 0.00 99 1011.8
20260906020159 60 78 0.0 0.0 0.00 0.00 0.00 99 1011.5
20260906015654 60 78 0.0 0.0 0.00 0.00 0.00 99 1011.4
20260906015152 60 78 0.0 0.0 0.00 0.00 0.00 98 1011.5
20260906014647 60 78 0.0 0.0 0.00 0.00 0.00 98 1011.5
20260906014143 61 78 0.0 0.9 0.00 0.00 0.00 98 1011.6
20260906013638 61 78 0.0 0.0 0.00 0.00 0.00 97 1011.5
20260906013133 61 78 0.0 0.0 0.00 0.00 0.00 96 1011.3
20260906012628 61 78 0.0 0.0 0.00 0.00 0.00 95 1011.5
20260906012123 62 78 0.0 0.0 0.00 0.00 0.00 95 1011.5
20260906011618 62 78 0.0 0.0 0.00 0.00 0.00 94 1011.4
20260906011113 62 78 0.0 0.0 0.00 0.00 0.00 94 1011.2
20260906010608 62 78 0.0 0.0 0.00 0.00 0.00 95 1011.1
20260906010104 62 78 0.0 0.0 0.00 0.00 0.00 95 1011.2
20260906005603 62 78 0.0 0.0 0.00 0.00 0.00 95 1011.0
20260906005102 62 78 0.0 0.0 0.00 0.00 0.00 95 1011.1
20260906004556 63 78 0.0 0.0 0.00 0.00 0.00 94 1011.2
20260906004051 63 78 0.0 0.0 0.00 0.00 0.00 93 1011.2
20260906003546 63 78 0.0 0.0 0.00 0.00 0.00 92 1011.1
20260906003042 64 78 0.0 0.0 0.00 0.00 0.00 91 1010.7
20260906002537 64 78 0.0 0.0 0.00 0.00 0.00 91 1010.8
20260906002032 64 78 0.0 0.0 0.00 0.00 0.00 90 1010.7
20260906001527 65 78 0.0 0.0 0.00 0.00 0.00 90 1010.9
20260906001021 65 78 0.0 0.0 0.00 0.00 0.00 90 1010.7
20260906000517 65 78 0.0 0.0 0.00 0.00 0.00 87 1010.7
20260906000012 66 78 0.0 0.9 0.00 0.00 0.00 87 1010.7
20260905235506 66 74 0.9 0.9 0.00 0.00 0.00 87 1010.9
20260905235001 66 145 0.0 0.0 0.00 0.00 0.00 87 1010.6
20260905234456 65 151 0.0 0.9 0.00 0.00 0.00 87 1010.4
20260905233950 65 150 0.0 0.0 0.00 0.00 0.00 87 1010.6
20260905233446 66 93 0.0 0.9 0.00 0.00 0.00 87 1010.4
20260905232944 66 149 0.0 0.9 0.00 0.00 0.00 86 1010.4
20260905232441 66 154 0.0 0.0 0.00 0.00 0.00 85 1010.4
20260905231936 67 154 0.0 0.0 0.00 0.00 0.00 84 1010.4
20260905231432 67 154 0.0 0.0 0.00 0.00 0.00 83 1010.4
20260905230928 68 154 0.0 0.0 0.00 0.00 0.00 82 1010.3
20260905230427 68 154 0.0 0.0 0.00 0.00 0.00 83 1010.3
20260905225925 68 154 0.0 0.9 0.00 0.00 0.00 82 1010.5
20260905225420 68 154 0.0 0.0 0.00 0.00 0.00 81 1010.2
20260905224915 69 155 0.9 0.9 0.00 0.00 0.00 80 1010.4
20260905224411 69 148 0.0 0.9 0.00 0.00 0.00 79 1010.4
20260905223905 69 148 0.0 0.0 0.00 0.00 0.00 79 1010.3
20260905223403 69 148 0.0 0.0 0.00 0.00 0.00 80 1010.3
20260905222858 69 148 0.0 0.0 0.00 0.00 0.00 79 1010.2
20260905222356 70 147 0.0 0.0 0.00 0.00 0.00 79 1010.2
20260905221852 70 147 0.0 0.0 0.00 0.00 0.00 77 1010.2
20260905221349 70 147 0.0 0.0 0.00 0.00 0.00 78 1010.2
20260905220839 70 147 0.0 0.0 0.00 0.00 0.00 77 1010.3
20260905220335 71 147 0.0 0.9 0.00 0.00 0.00 77 1009.9
20260905215834 71 165 0.0 0.9 0.00 0.00 0.00 77 1009.9
20260905215330 72 165 0.0 0.0 0.00 0.00 0.00 75 1009.9
20260905214826 72 140 0.0 0.9 0.00 0.00 0.00 73 1009.7
20260905214321 73 139 0.0 0.0 0.00 0.00 0.00 73 1009.8
20260905213816 74 182 0.9 1.7 0.00 0.00 0.00 71 1009.8
20260905213312 75 177 1.7 2.6 0.00 0.00 0.00 67 1009.8
20260905212807 74 162 0.9 0.9 0.00 0.00 0.00 72 1009.8
20260905212307 72 35 0.0 0.0 0.00 0.00 0.00 76 1010.1
20260905211801 72 172 0.0 0.0 0.00 0.00 0.00 76 1009.8
20260905211255 72 148 0.0 0.9 0.00 0.00 0.00 74 1009.8
20260905210753 73 168 0.9 1.7 0.00 0.00 0.00 72 1009.7
20260905210247 73 170 0.0 0.0 0.00 0.00 0.00 70 1009.8
20260905205746 73 170 0.9 0.9 0.00 0.00 0.00 73 1009.6
20260905205241 75 170 0.9 0.9 0.00 0.00 0.00 68 1009.6
20260905204740 75 41 1.7 1.7 0.00 0.00 0.00 68 1009.8
20260905204236 76 192 1.7 1.7 0.00 0.00 0.00 68 1009.6
20260905203735 74 175 0.9 0.9 0.00 0.00 0.00 70 1009.7
20260905203230 73 162 0.9 0.9 0.00 0.00 0.00 69 1009.5
20260905202725 74 140 0.9 0.9 0.00 0.00 0.00 70 1009.6
20260905202221 74 126 0.9 0.9 0.00 0.00 0.00 68 1009.5
20260905201716 72 139 0.0 0.0 0.00 0.00 0.00 73 1009.7
20260905201211 72 162 0.0 0.0 0.00 0.00 0.00 71 1009.6
20260905200706 73 147 0.0 0.0 0.00 0.00 0.00 71 1009.4
20260905200202 73 150 0.0 0.9 0.00 0.00 0.00 67 1009.4
20260905195700 73 153 0.0 0.0 0.00 0.00 0.00 69 1009.7
20260905195154 74 87 0.0 0.9 0.00 0.00 0.00 70 1009.5
20260905194650 74 215 0.9 1.7 0.00 0.00 0.00 70 1009.3
20260905194144 75 159 1.7 1.7 0.00 0.00 0.00 64 1009.5
20260905193638 75 68 1.7 1.7 0.00 0.00 0.00 64 1009.3
20260905193133 76 200 2.6 2.6 0.00 0.00 0.00 61 1009.3
20260905192629 77 202 1.7 1.7 0.00 0.00 0.00 60 1009.3
20260905192125 77 149 0.9 0.9 0.00 0.00 0.00 60 1009.5
20260905191624 77 184 0.9 1.7 0.00 0.00 0.00 59 1009.5
20260905191123 76 229 1.7 2.6 0.00 0.00 0.00 65 1009.6
20260905190621 76 183 0.9 1.7 0.00 0.00 0.00 64 1009.7
20260905190120 76 206 1.7 1.7 0.00 0.00 0.00 62 1009.7
20260905185619 77 132 0.9 1.7 0.00 0.00 0.00 61 1009.7
20260905185114 77 242 0.9 0.9 0.00 0.00 0.00 69 1009.8
20260905184609 76 105 0.0 0.9 0.00 0.00 0.00 71 1009.7
20260905184108 76 87 2.6 3.5 0.00 0.00 0.00 63 1009.5
20260905183607 77 89 0.9 0.9 0.00 0.00 0.00 66 1009.6
20260905183103 75 60 0.9 0.9 0.00 0.00 0.00 68 1009.5
20260905182602 75 108 0.9 0.9 0.00 0.00 0.00 66 1009.5
20260905182057 73 216 1.7 2.6 0.00 0.00 0.00 70 1009.8
20260905181557 75 172 1.7 2.6 0.00 0.00 0.00 69 1009.6
20260905181056 75 155 0.9 1.7 0.00 0.00 0.00 69 1009.6
20260905180551 75 190 0.9 1.7 0.00 0.00 0.00 68 1009.8
20260905180046 75 136 0.9 1.7 0.00 0.00 0.00 72 1009.9
20260905175545 73 126 0.9 0.9 0.00 0.00 0.00 72 1009.6
20260905175041 74 197 0.9 1.7 0.00 0.00 0.00 71 1009.7
20260905174536 74 56 0.0 0.9 0.00 0.00 0.00 69 1010.1
20260905174032 75 67 0.9 0.9 0.00 0.00 0.00 66 1009.8
20260905173528 76 246 1.7 1.7 0.00 0.00 0.00 63 1009.8
20260905173023 75 182 0.9 1.7 0.00 0.00 0.00 69 1009.8
20260905172521 74 215 1.7 1.7 0.00 0.00 0.00 70 1009.9
20260905172017 73 161 0.9 0.9 0.00 0.00 0.00 75 1009.9
20260905171513 73 166 1.7 1.7 0.00 0.00 0.00 71 1009.9
20260905171009 73 281 0.9 0.9 0.00 0.00 0.00 73 1009.9
20260905170506 74 63 1.7 2.6 0.00 0.00 0.00 71 1010.1
20260905170000 75 86 0.9 1.7 0.00 0.00 0.00 72 1009.9